Skip Page Navigation
NASA JPL Caltech
NASA Logo - Jet Propulsion Laboratory + View the NASA Portal
+ Center for Near-Earth Object Studies
JPL Home Earth Solar System Stars & Galaxies Technology
JPL Solar System Dynamics
BODIES ORBITS EPHEMERIDES TOOLS PHYSICAL DATA DISCOVERY FAQ SITE MAP
JPL Small-Body Database Browser
Search: [ help ]  
191 Kolga (A878 SB)
Classification: Main-belt Asteroid          SPK-ID: 2000191
Ephemeris | Orbit Diagram | Orbital Elements | Mission Design | Physical Parameters | Discovery Circumstances ]

[ show orbit diagram ]
Orbital Elements at Epoch 2459000.5 (2020-May-31.0) TDB
Reference: JPL 107 (heliocentric ecliptic J2000)
 Element Value Uncertainty (1-sigma)   Units 
e .0899950921568904 8.0069e-09  
a 2.8965929155361 8.8694e-09 au
q 2.635913769161433 1.9925e-08 au
i 11.50651829657021 2.275e-07 deg
node 159.2557899754647 1.6587e-06 deg
peri 226.2249522197347 1.1682e-05 deg
M 247.3299248702808 1.1664e-05 deg
tp 2459564.054220038073
(2021-Dec-15.55422004)
5.8867e-05 TDB
period 1800.651317398405
4.93
8.2704e-06
2.264e-08
d
yr
n .1999276575767766 9.1827e-10 deg/d
Q 3.157272061910767 9.6676e-09 au
  Orbit Determination Parameters
   # obs. used (total)      3257  
   data-arc span      10710 days (29.32 yr)  
   first obs. used      1991-07-16  
   last obs. used      2020-11-10  
   planetary ephem.      DE431  
   SB-pert. ephem.      SB431-N16  
   condition code      0  
   norm. resid. RMS      .30825  
   source      ORB  
   producer      Otto Matic  
   solution date      2020-Dec-18 01:51:41  

Additional Information
 Earth MOID = 1.65163 au 
 Jupiter MOID = 2.28747 au 
 T_jup = 3.253 
[ show covariance matrix ]

Ephemeris | Orbit Diagram | Orbital Elements | Mission Design | Physical Parameters | Discovery Circumstances ]

Physical Parameter Table
Parameter Symbol Value Units Sigma Reference Notes
absolute magnitude H 9.0   n/a MPO473763 IRAS observations used: 6
diameter diameter 94.536 km 0.433 urn:nasa:pds:neowise_diameters_albedos::2.0[mainbelt] (http://adsabs.harvard.edu/abs/2014ApJ...791..121M)  
rotation period rot_per 17.604 h n/a LCDB (Rev. 2020-October); Warner et al., 2009 Published Reference List:
[Behrend, R. (2005) Observatoire de Geneve web site, http://obswww.unige.ch/~behrend/page_cou.html]
[Behrend, R. (2009) Observatoire de Geneve web site, http://obswww.unige.ch/~behrend/page_cou.html]
[Warner, B.D. (2009) Minor Planet Bull. 36, 172-176.]
[Pilcher, F. (2013) Minor Planet Bull. 40, 85-87.]
[Behrend, R. (2020) Observatoire de Geneve web site, http://obswww.unige.ch/~behrend/page_cou.html]
geometric albedo albedo 0.046   0.009 urn:nasa:pds:neowise_diameters_albedos::2.0[mainbelt] (http://adsabs.harvard.edu/abs/2014ApJ...791..121M)  
B-V BV 0.675   0.036 EAR-A-5-DDR-UBV-MEAN-VALUES-V1.2 #obs=1; phase=9.77 deg.
U-B UB 0.258   0.051 EAR-A-5-DDR-UBV-MEAN-VALUES-V1.2 #obs=1; phase=9.77 deg.
Tholen spectral type spec_T XC:   n/a EAR-A-5-DDR-TAXONOMY-V4.0 used 2 color indices
SMASSII spectral type spec_B Cb   n/a EAR-A-5-DDR-TAXONOMY-V4.0 based on a high-resolution spectrum by Xu et al. (1995) or Bus and Binzel (2002)

191 Kolga (A878 SB)          Discovered 1878-Sep-30 by Peters, C. H. F. at Clinton
Reference: DISCOVERY.DBLast Updated: 2003-08-29

Alternate Designations
 A878 SB = 1949 YP 
Ephemeris | Orbit Diagram | Orbital Elements | Mission Design | Physical Parameters | Discovery Circumstances ]
ABOUT SSD CREDITS/AWARDS PRIVACY/COPYRIGHT GLOSSARY LINKS
FirstGov 2021-Jan-18 02:11 UT
(server date/time)  
NASA Home Page
Site Manager:   Ryan S. Park
Webmaster  Alan B. Chamberlin